Regional Weather Roundup
Issued by NWS

Home | Current Version | Previous Version | Text Only | Print | Product List | Glossary On
Versions: 1 2 3 4 5 6 7 8 9 10 11 12 13 14 15 16 17 18 19 20 21 22 23 24 25 26 27 28 29 30 31 32 33 34 35 36 37 38 39 40 41 42 43 44 45 46 47 48 49 50
000
ASUS45 KREV 040710
RWRNV
NEVADA REGIONAL WEATHER ROUNDUP
NATIONAL WEATHER SERVICE RENO NV
1200 AM PDT SAT JUL 04 2015

NOTE: "FAIR" INDICATES FEW OR NO CLOUDS BELOW 12,000 FEET WITH NO
SIGNIFICANT WEATHER AND/OR OBSTRUCTIONS TO VISIBILITY.

NVZ001-003-004-040800-
WESTERN NEVADA

CITY           SKY/WX    TMP DP  RH WIND       PRES   REMARKS
RENO           PTCLDY    77  58  51 NE7       30.05S
CARSON CITY    FAIR      75  55  50 CALM      30.08R
MINDEN         FAIR      68  55  64 E5        30.08R
SLIDE MTN        N/A     57  43  58 CALM        N/A
PYRAMID LAKE     N/A     77 N/A N/A W6          N/A
FALLON         PTCLDY    78  52  40 SW5       29.99R
LOVELOCK       PTCLDY    77  53  43 N5        29.98R
HAWTHORNE      CLEAR     81  55  41 NW7       30.02S
$$

NVZ002-CAZ072-073-040800-
NORTHERN AND CENTRAL SIERRA

CITY           SKY/WX    TMP DP  RH WIND       PRES   REMARKS
S. LAKE TAHOE  PTCLDY    62  52  69 S3        30.20S
TRUCKEE        CLEAR     54  50  87 CALM      30.19S
SQUAW VLY 8000 NOT AVBL
SUSANVILLE     CLEAR     70  54  56 W6        30.05S
BLUE CANYON    CLEAR     70  51  51 N3        30.15F
MAMMOTH LAKES  FAIR      63  46  55 W9        30.25R
BRIDGEPORT     FAIR      60  48  64 CALM      30.21S
$$

NVZ030-031-036-040800-
NORTHERN NEVADA

CITY           SKY/WX    TMP DP  RH WIND       PRES   REMARKS
ELKO           PTCLDY    64  57  78 W6        30.04S
WINNEMUCCA     PTCLDY    72  50  45 W6        30.00F
WENDOVER       CLOUDY    90  43  19 NW5       29.91F
$$

NVZ035-037-040800-
CENTRAL NEVADA

CITY           SKY/WX    TMP DP  RH WIND       PRES   REMARKS
ELY            PTCLDY    61  48  62 SE9       30.12F
EUREKA           N/A     66  46  48 CALM      30.10S
$$

NVZ013-014-040800-
SOUTH CENTRAL NEVADA

CITY           SKY/WX    TMP DP  RH WIND       PRES   REMARKS
TONOPAH        MOCLDY    79  44  28 NW8       30.07R
$$

NVZ017-020-022-040800-
SOUTHERN NEVADA

CITY           SKY/WX    TMP DP  RH WIND       PRES   REMARKS
LAS VEGAS      CLOUDY    97  35  11 S14       29.74S
N. LAS VEGAS   CLOUDY    96  49  20 W9        29.76R
NELLIS AFB     MOCLDY    99  37  11 SE15      29.74R
HENDERSON      CLOUDY    95  36  12 S14       29.83R
MERCURY        CLOUDY    90  32  12 SW8       29.88S
$$


USA.gov is the U.S. government's official web portal to all federal, state and local government web resources and services.